EW5544 San Venanzo IT current weather conditions

sailwx.info

Wind from 139 at 1 knots gusting 3

Air temperature 10.6° C
Dewpoint 7.1° C

Last reported at 2019-Dec-06 17:45 UTC.
Time now 2019-Dec-06 18:23 UTC

Location: N 42°51' E 012°18'.
View on Google Maps.

See reports from other nearby stations

  
Tides and Currents Weather Stations Pressure Air Temp Water Temp Dewpoint Dewpoint Depression Visibility Wind Speed Wind Dir Waves Ship Positions
date/time (UTC)wind fromknots sea level pressurealtimeterstation pressurevisibilityair tempwater tempwave heightnotes
2019-Dec-06 18:00 067 1 gusting 3 10.6
2019-Dec-06 17:45 139 1 gusting 3 10.6
2019-Dec-06 17:30 139 10.6
2019-Dec-06 17:15 118 2 gusting 5 10.6
2019-Dec-06 17:00 069 0 gusting 2 10.6
2019-Dec-06 16:45 086 1 gusting 3 11.1
2019-Dec-06 16:30 086 11.1
2019-Dec-06 16:15 086 11.1
2019-Dec-06 16:00 086 1 gusting 2 11.7
2019-Dec-06 15:45 086 0 gusting 2 11.7
2019-Dec-06 15:30 086 1 gusting 4 12.2
2019-Dec-06 15:15 074 0 gusting 3 12.2
2019-Dec-06 15:00 017 1 gusting 3 12.2
2019-Dec-06 14:45 017 1 gusting 4 12.8
2019-Dec-06 14:30 089 1 gusting 4 13.3
2019-Dec-06 14:17 135 1 gusting 6 13.9
2019-Dec-06 14:02 140 3 gusting 6 13.9
2019-Dec-06 13:46 173 1 gusting 8 13.9
2019-Dec-06 13:32 078 3 gusting 8 13.9
2019-Dec-06 13:16 128 2 gusting 7 13.3
2019-Dec-06 13:02 271 12.8
2019-Dec-06 12:46 225 2 gusting 4 12.8
2019-Dec-06 12:31 334 3 gusting 5 13.3
2019-Dec-06 12:16 074 0 gusting 4 13.3
2019-Dec-06 12:01 077 2 gusting 4 13.3
2019-Dec-06 11:46 218 0 gusting 5 12.8
2019-Dec-06 11:30 181 1 gusting 3 12.8
2019-Dec-06 11:16 067 1 gusting 4 13.3
2019-Dec-06 11:01 028 1 gusting 4 13.3
2019-Dec-06 10:46 105 1 gusting 3 12.8
2019-Dec-06 10:30 171 11.7
2019-Dec-06 10:15 135 0 gusting 3 11.1
2019-Dec-06 10:00 105 10.6
2019-Dec-06 09:45 105 9.4
2019-Dec-06 09:30 026 1 gusting 2 8.9
2019-Dec-06 09:17 024 0 gusting 2 8.3
2019-Dec-06 09:02 024 7.8
2019-Dec-06 08:46 024 7.2
2019-Dec-06 08:32 024 7.2
2019-Dec-06 08:16 024 6.7
2019-Dec-06 08:01 024 0 gusting 1 6.1
2019-Dec-06 07:46 024 5.6
2019-Dec-06 07:31 024 5.6
2019-Dec-06 07:16 024 5.6
2019-Dec-06 06:46 024 5.0
2019-Dec-06 06:30 024 5.0
2019-Dec-06 06:15 024 5.0
2019-Dec-06 06:01 024 0 gusting 1 5.0
2019-Dec-06 05:46 024 5.0
2019-Dec-06 05:30 024 0 gusting 2 5.0
2019-Dec-06 05:15 098 1 gusting 2 5.0
2019-Dec-06 05:00 321 0 gusting 1 5.0
2019-Dec-06 04:45 321 0 gusting 2 5.0
2019-Dec-06 04:31 321 5.0
2019-Dec-06 04:15 321 1 gusting 3 5.0
2019-Dec-06 04:00 321 5.0
2019-Dec-06 03:46 321 5.0
2019-Dec-06 03:30 321 5.0
2019-Dec-06 03:15 321 5.0
2019-Dec-06 03:01 321 5.0
2019-Dec-06 02:45 321 0 gusting 1 5.0
2019-Dec-06 02:30 321 5.0
2019-Dec-06 02:15 321 5.0
2019-Dec-06 02:00 321 5.0
2019-Dec-06 01:45 321 5.0
2019-Dec-06 01:30 321 5.0
2019-Dec-06 01:16 321 5.0
2019-Dec-06 01:00 321 5.0
2019-Dec-06 00:45 321 0 gusting 1 5.0
2019-Dec-06 00:30 321 5.6
2019-Dec-06 00:15 321 5.6
2019-Dec-06 00:00 321 0 gusting 2 5.6
2019-Dec-05 23:45 321 0 gusting 1 6.1
2019-Dec-05 23:30 321 6.1
2019-Dec-05 23:15 321 6.1
2019-Dec-05 23:01 321 0 gusting 1 6.1
2019-Dec-05 22:46 321 0 gusting 2 6.1
2019-Dec-05 22:32 321 0 gusting 1 6.1
2019-Dec-05 22:17 321 6.1
2019-Dec-05 22:02 321 0 gusting 1 6.1
2019-Dec-05 21:48 321 6.1
2019-Dec-05 21:31 321 1 gusting 3 6.1
2019-Dec-05 21:16 321 6.1
2019-Dec-05 21:02 321 0 gusting 1 6.1
2019-Dec-05 20:46 321 6.7
2019-Dec-05 20:32 321 6.7
2019-Dec-05 20:17 321 6.7
2019-Dec-05 20:02 281 6.7
2019-Dec-05 19:31 276 0 gusting 4 7.2
2019-Dec-05 19:16 299 0 gusting 2 7.2
2019-Dec-05 19:01 279 0 gusting 1 7.2
2019-Dec-05 18:46 279 7.2
2019-Dec-05 18:31 279 0 gusting 2 7.2
2019-Dec-05 18:16 279 7.2
2019-Dec-05 18:01 279 7.2
2019-Dec-05 17:46 279 7.8
2019-Dec-05 17:31 279 8.3
2019-Dec-05 17:16 279 8.3
2019-Dec-05 17:00 309 0 gusting 2 8.3
2019-Dec-05 16:45 238 0 gusting 1 7.8
2019-Dec-05 16:31 238 8.3
2019-Dec-05 16:15 238 0 gusting 1 8.3
2019-Dec-05 16:01 238 8.3
2019-Dec-05 15:46 238 8.3
2019-Dec-05 15:31 238 8.9
2019-Dec-05 15:15 238 8.9
2019-Dec-05 15:01 238 8.9
2019-Dec-05 14:46 238 8.9
2019-Dec-05 14:31 276 8.9
2019-Dec-05 14:15 276 0 gusting 3 8.9
2019-Dec-05 14:01 239 0 gusting 2 9.4
2019-Dec-05 13:46 239 1 gusting 3 9.4
2019-Dec-05 13:31 240 2 gusting 6 9.4
2019-Dec-05 13:16 248 1 gusting 4 9.4
2019-Dec-05 13:01 259 1 gusting 5 8.9
2019-Dec-05 12:46 263 2 gusting 6 8.9
2019-Dec-05 12:30 251 1 gusting 5 8.9
2019-Dec-05 12:16 304 3 gusting 7 8.3
2019-Dec-05 12:00 269 2 gusting 5 8.3
2019-Dec-05 11:45 236 1 gusting 6 7.8
2019-Dec-05 11:30 269 2 gusting 7 7.2
2019-Dec-05 11:15 271 2 gusting 6 6.7
2019-Dec-05 11:00 276 1 gusting 4 6.7
2019-Dec-05 10:45 246 3 gusting 6 6.1
2019-Dec-05 10:30 283 2 gusting 5 6.1
2019-Dec-05 10:02 250 2 gusting 5 5.6
2019-Dec-05 09:47 248 1 gusting 6 5.6
2019-Dec-05 09:31 261 1 gusting 4 5.0
2019-Dec-05 09:17 256 1 gusting 3 5.0
2019-Dec-05 09:01 261 1 gusting 3 5.0
2019-Dec-05 08:45 261 1 gusting 4 4.4
2019-Dec-05 08:31 292 4.4
2019-Dec-05 08:16 279 0 gusting 3 4.4
2019-Dec-05 08:01 063 3.9
2019-Dec-05 07:45 324 3.9
2019-Dec-05 07:31
2019-Dec-05 07:15
2019-Dec-05 07:01
2019-Dec-05 06:45
2019-Dec-05 06:30
2019-Dec-05 06:15 292 0 gusting 2 2.8
2019-Dec-05 06:00 292 2.8
2019-Dec-05 05:45 292 2.8
2019-Dec-05 05:32 292 2.8
2019-Dec-05 05:17
2019-Dec-05 05:03
2019-Dec-05 04:47
2019-Dec-05 04:31
2019-Dec-05 04:16
2019-Dec-05 04:01
2019-Dec-05 03:45 291 2 gusting 2 2.8
2019-Dec-05 03:31
2019-Dec-05 03:15
2019-Dec-05 03:00
2019-Dec-05 02:45 309 2 gusting 3 3.3
2019-Dec-05 02:30
2019-Dec-05 02:15
2019-Dec-05 02:01 309 1 gusting 3 2.8
2019-Dec-05 01:46
2019-Dec-05 01:32 317 0 gusting 2 2.2
2019-Dec-05 01:16 317 0 gusting 3 2.8
2019-Dec-05 01:01 317 2.8
2019-Dec-05 00:46 317 2.8
2019-Dec-05 00:31 317 2.8
2019-Dec-05 00:15 317 1 gusting 2 2.8
2019-Dec-05 00:02 317 2.8
2019-Dec-04 23:46 317 0 gusting 1 2.8
2019-Dec-04 23:31 317 0 gusting 3 3.3
2019-Dec-04 23:16 317 0 gusting 3 3.3
2019-Dec-04 23:01 312 2.8
2019-Dec-04 22:46 312 0 gusting 1 3.3
2019-Dec-04 22:31 312 1 gusting 2 3.3
2019-Dec-04 22:15 312 1 gusting 3 3.3
2019-Dec-04 22:00 280 1 gusting 2 3.3
2019-Dec-04 21:45 259 3.3
2019-Dec-04 21:30 259 1 gusting 2 3.3
2019-Dec-04 21:15 294 0 gusting 2 3.3
2019-Dec-04 21:01 294 0 gusting 3 3.3
2019-Dec-04 20:45 269 1 gusting 2 3.3
2019-Dec-04 20:30 269 0 gusting 2 3.3
2019-Dec-04 20:16 269 3.3
2019-Dec-04 20:00 268 3.3
2019-Dec-04 19:45 306 0 gusting 2 3.3
2019-Dec-04 19:30 306 0 gusting 2 3.3
2019-Dec-04 19:15 306 1 gusting 2 3.3
2019-Dec-04 19:00 285 3.9
2019-Dec-04 18:45 312 1 gusting 3 3.9
2019-Dec-04 18:30 292 0 gusting 4 4.4
2019-Dec-04 18:15 296 2 gusting 4 4.4
2019-Dec-04 18:00 311 2 gusting 3 4.4